Regional Weather Roundup
Issued by NWS Upton, NY

Current Version | Previous Version | Graphics & Text | Print | Product List | Glossary Off
Versions: 1 2 3 4 5 6 7 8 9 10 11 12 13 14 15 16 17 18 19 20 21 22 23 24 25 26 27

000
ASUS41 KOKX 191305
RWROKX

Regional Weather Roundup
National Weather Service New York NY
800 AM EST MON FEB 19 2018

Note: "FAIR" indicates few or no clouds below 12,000 feet with no
significant weather and/or obstructions to visibility.

NYZ071-072-176-178-NJZ106-104-191400-
New York City Metro Area

CITY           SKY/WX    TMP DP  RH WIND       PRES   REMARKS
Central Park   FAIR      41  31  67 S6        30.53S
Bronx Bot Gard   N/A     37  32  81 SE2       30.51F
Bronx Lehman C   N/A     39  32  75 SE3         N/A
LaGuardia Arpt PTSUNNY   40  36  86 S6        30.52S
Queens College   N/A     39  34  81 S7          N/A  WCI  34
Kennedy Intl   PTSUNNY   37  36  96 SE5       30.53S WCI  33
Breezy Point     N/A     37 N/A N/A S2          N/A
Brooklyn Coll    N/A     39  32  75 S7          N/A  WCI  34
Staten Island    N/A     37  32  81 S2          N/A
Newark/Liberty PTSUNNY   37  32  82 S5        30.52S WCI  33
Teterboro      FAIR      35  30  82 N3        30.51F
$$

NYZ177-179-078>081-191400-
Long Island New York

CITY           SKY/WX    TMP DP  RH WIND       PRES   REMARKS
Jones Beach      N/A     37 N/A N/A CALM        N/A
Wantagh          N/A     37  36  93 SE3         N/A
Hempstead      NOT AVBL
Matinecock Pt    N/A     36 N/A N/A E2          N/A
Farmingdale    FAIR      34  32  92 CALM      30.54R
MacArthur/ISP  FAIR      37  36  96 CALM      30.54R
Shirley        FAIR      37  34  89 SE5       30.55S WCI  33
Mt Sinai Harb    N/A    N/A N/A N/A CALM        N/A
Westhampton    FAIR      38  33  82 S5        30.56S WCI  34
East Hampton   FAIR      40  35  83 S7        30.55S WCI  35
Southold         N/A     39  34  81 S8          N/A  WCI  34
Montauk          N/A     42  36  79 VRB6      30.56S
$$

NYZ052-065-067-191400-
Hudson Valley

CITY           SKY/WX    TMP DP  RH WIND       PRES   REMARKS
White Plains   FAIR      30  27  88 CALM      30.51R
Larchmont Harb   N/A    N/A N/A N/A N3          N/A
Croton On Huds   N/A    N/A N/A N/A MISG        N/A
Somers           N/A     32  27  80 S5          N/A  WCI  27
Brewster         N/A     28  25  86 S1          N/A
Newburgh       SUNNY     27  25  93 CALM      30.50S
Montgomery     FAIR      20  19  96 CALM      30.49R
Otisville        N/A     23  19  86 SW1         N/A
Warwick          N/A     32  27  80 W2          N/A
Suffern          N/A     30  28  93 NW1         N/A
Poughkeepsie   FAIR      23  21  92 CALM      30.51R
Albany         FAIR      33  20  58 S13G24    30.43F WCI  24
$$

NJZ001-105-106-008-010-013-015-019>022-104-191400-
New Jersey

CITY           SKY/WX    TMP DP  RH WIND       PRES   REMARKS
Newark/Liberty PTSUNNY   37  32  82 S5        30.52S WCI  33
Teterboro      FAIR      35  30  82 N3        30.51F
Caldwell       FAIR      27  25  92 CALM      30.53S
Somerville     FAIR      26  25  96 CALM      30.50R
Linden         FAIR      36  31  82 CALM      30.52F
Perth Amboy      N/A     37 N/A N/A E2          N/A
Sussex         FAIR      21  21 100 CALM      30.48R
Andover          N/A     25  23  92 CALM      30.49R
Trenton        FAIR      36  32  85 SE5       30.50S WCI  32
Millville      FAIR      34  32  92 CALM      30.51S FOG
Atlantic City  FAIR      38  35  89 CALM      30.53R
Wrightstown    PTSUNNY   33  31  93 S3        30.49
Toms River     FAIR      32  30  92 CALM      30.54R
Belmar         FAIR      37  36  96 CALM      30.54R
$$

PAZ047>061-062-071-191400-
Eastern Pennsylvania

CITY           SKY/WX    TMP DP  RH WIND       PRES   REMARKS
Philadelphia   PTSUNNY   38  33  82 CALM      30.52R
Allentown      CLOUDY    32  25  75 CALM      30.49R
Scranton       PTSUNNY   35  26  69 VRB5      30.42R WCI  31
$$

CTZ002-004>006-009-010-012-RIZ004-006-007-MAZ004-011-015-191400-
Southern New England

 In CT

CITY           SKY/WX    TMP DP  RH WIND       PRES   REMARKS
Bradley Intl   FAIR      21  18  88 CALM      30.53R
Hartford       FAIR      26  23  88 NE5       30.54S WCI  20
Danbury        FAIR     N/A N/A N/A CALM      30.52S
Wtrbury/Oxford FAIR      32  28  85 S9        30.50S WCI  24
Norwalk Harbor   N/A    N/A N/A N/A N2          N/A
Bridgeport     FAIR      31  27  85 NE3       30.54S
Meriden        FAIR      22  21  96 CALM      30.53F
New Haven      FAIR      29  29 100 CALM      30.54S
Chester        FAIR      36  30  80 S7        30.53S WCI  30
Groton         FAIR      32  28  85 CALM      30.56S
Willimantic    FAIR      23  20  88 CALM      30.55F

 In RI

CITY           SKY/WX    TMP DP  RH WIND       PRES   REMARKS
Providence     FAIR      31  27  85 CALM      30.57F
Block Island   FAIR      40  34  79 S12       30.57S WCI  33
Westerly       FAIR      31  28  89 CALM      30.57F

In MA

CITY           SKY/WX    TMP DP  RH WIND       PRES   REMARKS
Boston         FAIR      31  26  82 S6        30.56S WCI  25
Worcester      FAIR      28  21  75 S10       30.49S WCI  19
Westfield      FAIR      20  20 100 CALM      30.52S
Provincetown   FAIR      38  36  92 S12       30.58F WCI  30
Nantucket      FAIR      40  36  86 S12       30.60S WCI  33
$$

ANZ330-335-338-340-345-350-353-355-191400-
Coastal Marine Observations


STATION/POSITION TIME  SKY/WX   TEMP    WIND        PRES    VSBY  WAVE
                                AIR SEA DIR/SP/G                  HT/PER
                 (UTC)          (F)     (DEG/KT/KT) (MB)    (MI)  (FT/S)
NY Harb Entrance 1150            39 39  110/  2/  4 1033.2          1/ 8
20 S Fire Island 1150            43 42  180/ 10/ 12 1033.8          2/ 3
15 E Barnegat Li 1230               40                N/A           2/10
Hudson Canyon    1150            46 47  150/ 12/ 14 1033.7          2/ 9
Kings Point      1230            36 36  190/  2/  2 1034.7
Execution Rocks  NOT AVBL
Western LI Sound NOT AVBL
Central LI Sound 1230            38     150/  4/  4   N/A           0
Robbins Reef     1230            37     160/  4/  5 1034.2
$$


>>>>>>>>>>>>>>>>>>>>>>>>>>>> KEY <<<<<<<<<<<<<<<<<<<<<<<<<<<
>                                                          <
>     SKY/WX - Sky Condition/Present Weather               <
>     TMP    - Temperature in Fahrenheit                   <
>     DP     - Dew Point in Fahrenheit                     <
>     RH     - Relative Humidity in Percent                <
>     WIND   - Direction (from) and Speed in MPH           <
>     PRES   - Mean Sea Level Pressure (inches of Hg)      <
>     WCI    - Wind Chill Index                            <
>     VSB    - Visibility in Miles                         <
>     HX     - Heat Index                                  <
>     TC     - Temperature in Celsius                      <
>     VRB    - Varibale Wind Direction                     <
>                                                          <
>>>>>>>>>>>>>>>>>>>>>>>>>>>> KEY <<<<<<<<<<<<<<<<<<<<<<<<<<<




USA.gov is the U.S. government's official web portal to all federal, state and local government web resources and services.